Regional Weather Roundup
Issued by NWS

Home | Current Version | Previous Version | Text Only | Print | Product List | Glossary Off
Versions: 1 2 3 4 5 6 7 8 9 10 11 12 13 14 15 16 17 18 19 20 21 22 23 24 25 26 27 28 29 30 31 32 33 34 35 36 37 38 39 40 41 42 43 44 45 46 47 48 49 50

000
ASUS43 KMPX 142310
RWRMN
WEATHER ROUNDUP FOR MINNESOTA
NATIONAL WEATHER SERVICE TWIN CITIES/CHANHASSEN MN
500 PM CST THU DEC 14 2017


NOTE: "FAIR" INDICATES FEW OR NO CLOUDS BELOW 12,000 FEET WITH NO
SIGNIFICANT WEATHER AND/OR OBSTRUCTIONS TO VISIBILITY. N/A MEANS
CURRENT SKY AND/OR WEATHER CONDITIONS ARE NOT AVAILABLE.

MNZ060>063-068>070-150000-
   Twin Cities Metro

CITY           SKY/WX    TMP DP  RH WIND       PRES   REMARKS
TWIN CITIES    CLOUDY    22  18  85 NW10      30.03R WCI  11
ST PAUL        CLOUDY    22  17  81 NW13      30.04R WCI  10
CRYSTAL        CLOUDY    22  14  71 NW9       30.02R WCI  12
BLAINE         FLURRIES  23  18  80 W10       30.02R WCI  12
LAKEVILLE      CLOUDY    19  18  93 W10       30.02R WCI   8
EDEN PRAIRIE   CLOUDY    23  17  78 W9        30.02R WCI  13
SOUTH ST PAUL  CLOUDY    23  18  79 W9        30.03R WCI  13
LAKE ELMO      CLOUDY    23  19  86 NW10      30.02S WCI  12
$$
MNZ001>005-007-008-013>017-022>024-027-028-150000-
   Northwest Minnesota

CITY           SKY/WX    TMP DP  RH WIND       PRES   REMARKS
BEMIDJI        LGT SNOW  13   9  84 W10       29.98R WCI   0
HALLOCK        FLURRIES  18  16  93 NW3       30.05S
ROSEAU         LGT SNOW  16  10  79 W7        30.01S WCI   6
WARROAD        FLURRIES  12   9  85 W7        30.00R WCI   2
THIEF RVR FALL FLURRIES  15  11  83 NW8       30.04S WCI   4
CROOKSTON      FLURRIES  18  16  93 N6        30.07S WCI   9
FOSSTON        CLOUDY    12   9  85 NW12      30.02S WCI  -2
DETROIT LAKES  CLOUDY    19  18  93 NW10      30.03S WCI   8
MOORHEAD       LGT RAIN  21  18  86 CALM      30.07F
PARK RAPIDS    FLURRIES  17  12  80 NW17      29.98R WCI   1
MAHNOMEN       CLOUDY    16  12  84 N13       30.03R WCI   2
$$
MNZ006-009>011-018-025>026-150000-
   North Central Minnesota

CITY           SKY/WX    TMP DP  RH WIND       PRES   REMARKS
BAUDETTE       FLURRIES  12   7  80 NW9       29.96S WCI   0
FLAG ISLAND    FLURRIES  10   7  85 W10       29.96F WCI  -3
INTL FALLS     LGT SNOW  11   5  77 W7        29.94S WCI   0
WASKISH        FLURRIES  12   9  85 W10       29.98R WCI  -1
BIG FORK       FLURRIES  12   7  79 NW6       29.95S WCI   3
LONGVILLE      FLURRIES  18  12  79 W8        29.97R WCI   7
GRAND RAPIDS   FLURRIES  15   8  73 NW13      29.96S WCI   1
CRANE LAKE     LGT SNOW  12   9  85 CALM      29.94F
ORR            LGT SNOW  12   7  79 NW3       29.90S
COOK           CLOUDY    12   7  79 W6        29.93S WCI   3
WALKER         FLURRIES  15  10  82 NW13G21   29.97R WCI   1
$$
MNZ012-019>021-037-150000-
   Northeast Minnesota

CITY           SKY/WX    TMP DP  RH WIND       PRES   REMARKS
DULUTH         LGT SNOW  16  11  80 W7        29.91S WCI   6
ELY            FLURRIES  12   9  85 W7        29.90S WCI   2
HIBBING        CLOUDY    13   6  74 NW9       29.93R WCI   1
EVELETH        FLURRIES  15   6  69 W8        29.93S WCI   4
DULUTH HARBOR  CLOUDY    21  14  73 W8        29.99R WCI  12
TWO HARBORS    FLURRIES  19  12  73 W3        29.91S
SILVER BAY     FLURRIES  18  12  79 W3        29.90S
GRAND MARAIS     N/A     20  13  74 W3        29.94R
G MARAIS ARPRT LGT SNOW  12   7  79 CALM      29.84S
$$
MNZ029>031-032-039>041-046>048-054>057-064-150000-
   West Central Minnesota

CITY           SKY/WX    TMP DP  RH WIND       PRES   REMARKS
FERGUS FALLS   MOCLDY    21  18  86 NW9       30.09S WCI  11
WHEATON        CLOUDY    27  18  69 NW14G21   30.11R WCI  15
MORRIS         CLOUDY    25  21  86 NW12      30.05S WCI  14
ALEXANDRIA     CLOUDY    21  18  88 NW13      30.02S WCI   9
ELBOW LAKE     CLOUDY    21  20  93 W10       30.06S WCI  10
WADENA         FLURRIES  18  12  79 NW14G21   30.00S WCI   4
GLENWOOD       PTCLDY    21  18  86 NW14G22   30.03S WCI   8
APPLETON       CLOUDY    27  19  74 NW9       30.08S WCI  17
BENSON         CLOUDY    25  18  74 N9        30.08R WCI  15
ORTONVILLE     CLOUDY    27  21  80 NW6       30.08S WCI  20
MADISON        CLOUDY    28  23  80 NW12      30.09R WCI  18
WILLMAR        CLOUDY    25  19  80 NW20      30.06R WCI  11
$$
MNZ033>034-036-042>043-049>051-058-059-150000-
   Central Minnesota

CITY           SKY/WX    TMP DP  RH WIND       PRES   REMARKS
ST CLOUD       CLOUDY    22  16  78 W7        30.01S WCI  13
SAUK CENTRE    CLOUDY    21  16  79 NW13G18   30.03R WCI   9
PAYNESVILLE    CLOUDY    23  19  84 NW12      30.04R WCI  12
AITKIN         FLURRIES  18  10  73 W3        29.96S
PINE RIVER     FLURRIES  18  12  79 W7        30.01S WCI   8
BRAINERD       CLOUDY    20  12  71 NW10      29.98S WCI   9
STAPLES        FLURRIES  18  12  79 NW12G18   30.00S WCI   5
LONG PRAIRIE   CLOUDY    21  16  79 W14       30.01F WCI   8
LITTLE FALLS   CLOUDY    21  10  63 NW8       30.01S WCI  12
LITCHFIELD     MIX PCPN  25  19  80 NW7       30.03S WCI  17
BUFFALO        CLOUDY    22  16  76 W6        30.04S WCI  15
MAPLE LAKE     FLURRIES  23  18  82 W5        30.03S WCI  17
HUTCHINSON     CLOUDY    25  20  79 W8        30.04S WCI  17
$$
MNZ037-044-045-052-053-150000-
   East Central Minnesota

CITY           SKY/WX    TMP DP  RH WIND       PRES   REMARKS
PRINCETON      FLURRIES  21  16  79 CALM      30.00F
MORA           FLURRIES  19  14  79 CALM      30.01S
CAMBRIDGE      FLURRIES  21  12  68 W7        30.01S WCI  13
RUSH CITY      LGT SNOW  20  15  81 W5        30.01S WCI  13
MOOSE LAKE     LGT SNOW  19  14  79 CALM      29.96R
HINCKLEY       FLURRIES  21  16  79 W3        29.99S
CLOQUET        LGT SNOW  18  12  79 W7        29.94R WCI   8
MCGREGOR       CLOUDY    19  12  73 W5        29.97S WCI  13
$$
MNZ071>073-080-081-089-090-097-098-150000-
   Southwest Minnesota

CITY           SKY/WX    TMP DP  RH WIND       PRES   REMARKS
MONTEVIDEO     CLOUDY    27  21  80 N14       30.08R WCI  15
GRANITE FALLS  CLOUDY    28  24  86 W10       30.09S WCI  18
CANBY          CLOUDY    28  26  93 NW8       30.10R WCI  19
MARSHALL       CLOUDY    25  23  92 NW10      30.08R WCI  15
REDWOOD FALLS  CLOUDY    27  20  75 NW9       30.06R WCI  18
OLIVIA         MOCLDY    28  21  74 NW10      30.05R WCI  19
PIPESTONE      MIX PCPN  27  25  93 N10       30.05R WCI  17
WINDOM           N/A     27  14  59 NW10      30.04S WCI  17
WORTHINGTON    CLOUDY    28  23  81 N9        30.04S WCI  19
JACKSON        CLOUDY    28  19  69 MISG      30.04S
TRACY          MIX PCPN  27  25  93 NW10      30.07R WCI  17
SLAYTON        CLOUDY    26  24  93 N7        30.05S WCI  18
$$
MNZ065>067-074>077-082>085-091>093-150000-
   South Central Minnesota

CITY           SKY/WX    TMP DP  RH WIND       PRES   REMARKS
MANKATO        FLURRIES  24  18  77 NW8       30.04R WCI  15
NEW ULM        CLOUDY    25  18  74 NW10      30.05R WCI  15
ST JAMES       CLOUDY    27  19  74 NW10      30.06S WCI  17
FAIRMONT       CLOUDY    27  20  75 NW13      30.05R WCI  16
GLENCOE        CLOUDY    25  19  79 NW7       30.03S WCI  17
FARIBAULT      CLOUDY    21  18  86 W7        30.03R WCI  13
OWATONNA       CLOUDY    23  19  86 W8        30.01S WCI  14
WASECA         CLOUDY    23  19  86 W8        30.04S WCI  14
ALBERT LEA     CLOUDY    23  18  80 W9        30.02S WCI  13
$$
MNZ078>079-086>088-094>096-150000-
   Southeast Minnesota

CITY           SKY/WX    TMP DP  RH WIND       PRES   REMARKS
ROCHESTER      CLOUDY    21  18  88 W12       29.99F WCI   9
RED WING       CLOUDY    25  16  68 W7        30.02R WCI  17
STANTON        CLOUDY    24  19  81 W9        30.01R WCI  14
DODGE CENTER   CLOUDY    21  18  86 W12       30.00R WCI   9
WINONA           N/A     27  18  69 W5        30.02F WCI  21
AUSTIN         CLOUDY    21  18  86 W7        30.01S WCI  13
PRESTON        CLOUDY    22  16  76 W8        30.00F WCI  13
$$
ABBREVIATIONS USED IN REMARKS
   TC - TEMPERATURES IN CELSIUS
  WCI - WIND CHILL INDEX
   HX - HEAT INDEX
  VSB - VISIBILITY
$$




USA.gov is the U.S. government's official web portal to all federal, state and local government web resources and services.